Mobile, AL

3:47 AM CST on December 06, 2016 (GMT -0600)
Mobile Downtown

Weather History for KBFM - February, 2013

Change the Weather History Date:

Wednesday, February 6, 2013

  Actual Average Record
Temperature  
Mean Temperature 58 °F -  
Max Temperature 66 °F 59 °F 73 °F (2006)
Min Temperature 51 °F 41 °F 26 °F (2000)
Degree Days  
Heating Degree Days 6    
Growing Degree Days 8 (Base 50)    
Moisture  
Dew Point 55 °F    
Average Humidity 95    
Maximum Humidity 100    
Minimum Humidity 75    
Precipitation  
Precipitation 0.02 in - - ()
Sea Level Pressure  
Sea Level Pressure 30.10 in    
Wind  
Wind Speed 2 mph (NE)    
Max Wind Speed 8 mph    
Max Gust Speed -    
Visibility 4 miles    
Events Fog , Rain    
Averages and records for this station are not official NWS values.
T = Trace of Precipitation, MM = Missing Value Source: NWS Daily Summary

Daily Weather History Graph

Daily Weather History Graph

Search for Another Location

Airport or City:

Trip Planner

Search our weather history database for the weather conditions in past years. The results will help you decide how hot, cold, wet, or windy it might be!

Date:

Astronomy

Feb. 06, 2013 Rise Set
Actual Time 6:40 AM CST 5:33 PM CST
Civil Twilight 6:15 AM CST 5:58 PM CST
Nautical Twilight 5:46 AM CST 6:26 PM CST
Astronomical Twilight 5:18 AM CST 6:54 PM CST
Moon 3:15 AM CST 1:58 PM CST
Length of Visible Light 11h 43m
Length of Day
10h 53m
Waning Crescent, 17% of the Moon is Illuminated
Feb 6
Waning Crescent
Feb 10
New
Feb 17
First Quarter
Feb 25
Full
Mar 4
Last Quarter

Hourly Weather History & Observations

Time (CST) Temp. Dew Point Humidity Pressure Visibility Wind Dir Wind Speed Gust Speed Precip Events Conditions
12:25 AM 51.8 °F 51.8 °F 100% 30.06 in 0.2 mi Calm Calm - N/A Fog Fog
12:35 AM 51.8 °F 51.8 °F 100% 30.06 in 0.2 mi Calm Calm - N/A Fog Fog
12:44 AM 51.8 °F 51.8 °F 100% 30.06 in 0.2 mi Calm Calm - N/A Fog Fog
12:53 AM 52.0 °F 52.0 °F 100% 30.07 in 0.5 mi Calm Calm - N/A Fog Fog
1:02 AM 53.6 °F 53.6 °F 100% 30.07 in 0.8 mi Calm Calm - N/A   Overcast
1:25 AM 55.4 °F 55.4 °F 100% 30.07 in 0.2 mi Calm Calm - N/A Fog Fog
1:39 AM 55.4 °F 55.4 °F 100% 30.07 in 0.2 mi Calm Calm - N/A Fog Fog
1:53 AM 55.9 °F 55.9 °F 100% 30.07 in 0.2 mi ENE 3.5 mph - N/A Fog Fog
2:53 AM 55.0 °F 55.0 °F 100% 30.07 in 0.2 mi ENE 3.5 mph - N/A Fog Fog
3:05 AM 55.4 °F 55.4 °F 100% 30.07 in 0.2 mi Calm Calm - N/A Fog Fog
3:22 AM 55.4 °F 55.4 °F 100% 30.08 in 0.2 mi ENE 3.5 mph - N/A Fog Fog
3:53 AM 55.0 °F 55.0 °F 100% 30.08 in 0.5 mi NE 3.5 mph - 0.01 in Fog Fog
4:11 AM 55.4 °F 55.4 °F 100% 30.08 in 0.2 mi North 4.6 mph - N/A Fog Fog
4:38 AM 53.6 °F 53.6 °F 100% 30.09 in 0.2 mi NNE 5.8 mph - N/A Fog Fog
4:53 AM 55.0 °F 55.0 °F 100% 30.10 in 0.2 mi North 6.9 mph - N/A Fog Fog
5:53 AM 54.0 °F 54.0 °F 100% 30.11 in 0.2 mi NNE 4.6 mph - N/A Fog Fog
6:31 AM 53.6 °F 53.6 °F 100% 30.12 in 0.8 mi NNE 4.6 mph - N/A   Mist
6:53 AM 54.0 °F 54.0 °F 100% 30.12 in 1.0 mi NNE 4.6 mph - N/A   Overcast
7:04 AM 53.6 °F 53.6 °F 100% 30.12 in 2.0 mi NE 3.5 mph - N/A   Overcast
7:25 AM 53.6 °F 53.6 °F 100% 30.13 in 4.0 mi NE 4.6 mph - N/A   Overcast
7:53 AM 54.0 °F 54.0 °F 100% 30.13 in 5.0 mi NE 3.5 mph - N/A   Overcast
8:15 AM 55.4 °F 55.4 °F 100% 30.14 in 0.8 mi Calm Calm - N/A   Overcast
8:28 AM 55.4 °F 55.4 °F 100% 30.15 in 0.2 mi Calm Calm - N/A Fog Fog
8:53 AM 55.0 °F 55.0 °F 100% 30.15 in 0.2 mi NE 4.6 mph - N/A Fog Fog
9:53 AM 55.9 °F 55.9 °F 100% 30.18 in 0.5 mi Calm Calm - N/A Fog Fog
10:27 AM 57.2 °F 57.2 °F 100% 30.17 in 2.0 mi North 4.6 mph - N/A   Overcast
10:53 AM 59.0 °F 57.0 °F 93% 30.16 in 9.0 mi NE 4.6 mph - N/A   Overcast
11:10 AM 60.8 °F 57.2 °F 88% 30.15 in 7.0 mi NNE 4.6 mph - N/A   Scattered Clouds
11:53 AM 64.0 °F 57.9 °F 80% 30.14 in 10.0 mi Variable 3.5 mph - N/A   Scattered Clouds
12:53 PM 66.0 °F 57.9 °F 75% 30.12 in 10.0 mi ESE 3.5 mph - N/A   Scattered Clouds
1:53 PM 66.0 °F 57.9 °F 75% 30.09 in 10.0 mi SSE 6.9 mph - N/A   Clear
2:53 PM 63.0 °F 57.0 °F 81% 30.06 in 10.0 mi South 5.8 mph - N/A   Clear
3:53 PM 64.9 °F 57.0 °F 75% 30.05 in 10.0 mi Calm Calm - N/A   Clear
4:53 PM 62.1 °F 57.0 °F 84% 30.06 in 10.0 mi SSW 8.1 mph - N/A   Scattered Clouds
5:53 PM 61.0 °F 57.0 °F 87% 30.06 in 10.0 mi South 5.8 mph - N/A   Partly Cloudy
6:53 PM 60.1 °F 57.0 °F 90% 30.09 in 9.0 mi SSW 3.5 mph - N/A   Partly Cloudy
7:53 PM 57.9 °F 57.0 °F 97% 30.06 in 10.0 mi Calm Calm - N/A   Clear
8:53 PM 57.9 °F 57.0 °F 97% 30.08 in 10.0 mi Calm Calm - N/A   Mostly Cloudy
9:53 PM 59.0 °F 57.9 °F 96% 30.07 in 10.0 mi Calm Calm - N/A   Mostly Cloudy
10:53 PM 57.9 °F 57.9 °F 100% 30.07 in 9.0 mi Calm Calm - 0.00 in   Mostly Cloudy
11:53 PM 59.0 °F 57.9 °F 96% 30.05 in 10.0 mi NE 4.6 mph - 0.01 in Rain Light Rain